COSMOS 1755

Satellite information

Favourite Embed

Satellite Type and Status

PAYLOADIN ORBIT

Key statistics

Satellite COSMOS 1755 at a glance.

Uptime

14274

Days in orbit

Revolutions

≈ 12.5

Per day

Orbit

LEO

Low Earth Orbit

Inclination

74.0

Latest

Satellite identification and parameters

Extended collection of information and parameters for COSMOS 1755.

Object identification

Identified? True

Debris? False

Object name: COSMOS 1755

International designator: 1986-042H

Object number (NORAD): 16765

Object ID (CCSDS): 16765

Country: COMMONWEALTH OF INDEPENDENT STATES (CIS)

Current information (Y/N): Y

RCS size: MEDIUM

Orbital parameters

Period: 114.802 minutes

Inclination: 74.0186 deg

SMA: 7824.543 km

Apoapsis: 1468.857 km

Periapsis: 1423.959 km

RAAN: 270.5042 deg

Eccentricy: 0.0028691

Argument of periapsis: 99.9465 deg

Mean anomaly: 4.8668 deg

Mean motion: 12.54337166 rev/day

Mean motion (dot): -0.00000026 rev/day2

B* drag term: -0.000059892 1/REarth

Two-line elements (TLE)

Creation date: July 4, 2025, 6:39 p.m.

Reference frame: TEME

Reference center: EARTH

Epoch: July 4, 2025, 2:15 p.m. UTC

TLE line 0: 0 COSMOS 1755

TLE line 1: 1 16765U 86042H 25185.59399742 -.00000026 00000-0 -59892-4 0 9991

TLE line 2: 2 16765 74.0186 270.5042 0028691 99.9465 4.8668 12.54337166789386

Live tracking on map

Real-time ground track for satellite COSMOS 1755.

In-orbit conjunctions

There are no conjunctions computed for COSMOS 1755, at the moment. Check back to stay up to date, as we update our databases every day.

Go to all conjunctions

Associated space launch

Military communications satellites

COSMOS 1755 was lifted into orbit during the mission ‘Kosmos-3M | Strela-1M 305-312’, on board a Kosmos-3M space rocket.

The launch took place on June 6, 1986, 3:57 a.m. from 132/1 (132L).

For more information about the launch, click the button.

Launch to space Kosmos-3M | Strela-1M 305-312
Kosmos-3M | Strela-1M 305-312

Agency: N/A

Status: Launch Successful

Launch date: June 6, 1986, 3:57 a.m. UTC

Rocket: Kosmos-3M

Launch pad: 132/1 (132L)

Location: Plesetsk Cosmodrome, Russian Federation

...

Latest news about this satellite

There are no fresh news available about this satellite. Check back as we update our databases every day.


Newsletter sign-up

Weekly statistics, charts and insights to help you stay on top of the space industry.